Location: Case Pieve al Toppo
(43.4167°N, 11.8000°E)
Time: 06:16:08
(UTC+00:00)

Daily predictions for brighter satellites

Satellite Brightness Start Highest point End
(mag) Time Altitude Azimuth Time Altitude Azimuth Time Altitude Azimuth
Cosmos 676 Rocket 4.4 18:39:11 10° S 18:44:09 41° ESE 18:49:08 10° NE
Cosmos 972 4.4 18:42:11 10° NNW 18:47:13 87° ENE 18:52:05 10° SSE
MOS 1 4.4 18:42:08 10° SSE 18:47:41 65° ENE 18:53:19 10° N
CZ-2C R/B 4.0 18:45:27 10° S 18:50:02 46° W 18:54:36 10° NNW
Genesis I 3.2 18:46:30 10° NNW 18:50:23 76° NE 18:54:15 10° SE
Cosmos 1934 Rocket 4.5 18:45:01 10° SSE 18:50:54 41° E 18:56:47 10° NNE
USA 276 3.9 18:51:16 10° NW 18:54:00 26° N 18:56:44 10° ENE
X-37B 0.9 18:51:30 10° W 18:54:37 63° N 18:57:46 10° E
Cosmos 1980 Rocket 2.4 18:49:32 10° NNW 18:55:10 60° ENE 19:00:43 10° SE
IRIDIUM 104 4.3 18:52:07 10° S 18:57:19 79° E 19:02:33 10° N
Lacrosse 5 2.8 18:53:04 10° NW 18:57:50 39° NNE 19:02:34 10° E
CZ-2C R/B 4.3 18:55:20 10° NNE 18:59:31 35° E 19:03:36 10° SSE
Resurs 01 Rocket 2.7 18:57:31 10° SE 19:01:21 29° ENE 19:05:11 10° N
Cosmos 1833 Rocket 3.5 18:56:43 10° SW 19:02:14 57° WNW 19:07:48 10° NNE
USA 238 DEB 3.6 18:59:03 10° SSW 19:05:33 68° ESE 19:12:22 10° NE
USA 238 3.6 18:59:09 10° SSW 19:05:39 68° ESE 19:12:28 10° NE
SPOT 3 Rocket 3.9 19:01:09 10° SE 19:06:10 50° ENE 19:11:10 10° N
IRIDIUM 114 4.4 19:01:15 10° S 19:06:28 86° W 19:11:43 10° N
Cosmos 1697 Rocket 3.2 19:01:58 10° NNW 19:07:30 61° WSW 19:13:00 10° S
Cosmos 1867 3.8 19:02:20 10° SW 19:07:45 76° NW 19:13:14 10° NNE
GP-B 4.3 19:04:32 10° NNE 19:08:10 24° E 19:11:09 13° SE
MOS 1 Rocket 4.4 19:03:49 10° N 19:09:07 58° WNW 19:14:12 10° SSW
CENTAUR R/B 2.7 19:03:55 10° S 19:09:18 43° ESE 19:15:35 10° NE
Cosmos 1666 Rocket 3.5 19:05:11 10° S 19:09:28 71° E 19:13:49 10° NNE
Cosmos 1954 Rocket 4.0 19:06:57 10° S 19:12:14 72° ESE 19:17:34 10° NNE
DMSP B5D2-2 4.1 19:10:16 10° NNE 19:15:32 83° ESE 19:20:48 10° SSW
FREGAT/IRIS 3.5 19:13:35 10° S 19:16:07 41° W 19:18:38 10° NNW
Cosmos 1821 Rocket 4.2 19:10:46 10° SSW 19:16:55 77° W 19:23:13 10° N
Ariane Rocket 3.6 19:12:04 10° S 19:17:03 59° W 19:22:03 10° NNW
Cosmos 405 Rocket 3.7 19:15:00 14° SE 19:17:25 26° E 19:20:35 10° NE
Intercosmos 25 3.4 19:16:23 10° NNW 19:19:55 63° W 19:23:02 10° S
Cosmos 1812 4.1 19:17:51 10° NNW 19:21:28 40° W 19:25:04 10° SSW
SJ-6B 3.7 19:21:11 10° S 19:25:05 50° W 19:28:57 10° NNW
Cosmos 1140 Rocket 4.5 19:23:40 10° SW 19:28:45 51° WNW 19:33:53 10° N
NOSS 2 (A) 3.9 19:26:54 10° NW 19:29:24 84° SW 19:30:20 32° SSE
Cosmos 1763 Rocket 4.2 19:24:59 10° N 19:29:58 39° ENE 19:33:13 19° ESE
Resurs 1-3 3.6 19:25:44 10° SSE 19:30:07 87° E 19:34:32 10° NNW
Cosmos 1437 Rocket 4.2 19:27:56 10° NNE 19:30:51 21° ENE 19:31:55 19° E
OBJECT-B 1.0 19:29:41 11° S 19:32:46 72° WSW 19:36:04 10° NNW
Cosmos 2084 Rocket 3.4 19:30:21 10° SSW 19:34:25 57° ESE 19:38:37 10° NE
H-2A R/B 4.0 19:32:14 10° NNE 19:36:04 35° E 19:38:17 20° SSE
Cosmos 1633 Rocket 3.3 19:31:56 10° SSW 19:36:20 72° W 19:40:45 10° N
Cosmos 1184 Rocket 2.9 19:33:58 10° SSW 19:37:15 75° W 19:40:34 10° N
SPOT 5 4.5 19:38:25 14° E 19:39:44 15° ENE 19:42:17 10° NNE
Cosmos 921 Rocket 2.8 19:38:13 10° NNW 19:42:27 82° ENE 19:45:04 22° SSE
Cosmos 1535 Rocket 4.5 19:36:34 10° S 19:42:41 85° W 19:48:50 10° N
Cosmos 2123 Rocket 4.1 19:37:24 10° N 19:43:40 84° W 19:49:57 10° S
MetOp-B 4.3 19:40:53 21° SE 19:44:24 55° ENE 19:49:38 10° N
Cosmos 1605 Rocket 3.9 19:45:01 10° S 19:51:07 76° E 19:57:12 10° N
Meteor 1-19 Rocket 4.4 19:46:50 10° N 19:52:09 51° ENE 19:54:59 26° SE
Okean 1 3.5 19:50:43 10° N 19:54:43 54° E 19:56:09 34° SE
CZ-2C R/B 3.9 19:50:09 10° N 19:55:01 41° WNW 19:59:55 10° SW
NOSS 3-2 (A) 4.1 19:50:17 10° SW 19:55:53 57° NW 20:02:19 10° NNE
USA 267 3.4 19:52:03 10° ENE 19:58:21 49° SE 20:04:38 10° SSW
Cosmos 2219 Rocket 4.4 19:57:01 10° NNE 19:59:36 13° NE 20:02:10 10° ENE
Meteor 2-4 Rocket 4.4 19:55:34 10° N 20:00:43 37° ENE 20:02:35 29° ESE
Cosmos 540 Rocket 4.2 19:58:04 10° N 20:02:53 37° ENE 20:04:39 29° ESE
SL-16 R/B 2.3 19:58:12 10° NNW 20:03:50 63° ENE 20:06:28 32° SE
SL-4 R/B 4.0 20:00:40 10° WNW 20:03:54 24° N 20:06:58 10° NE
SL-27 R/B 2.1 20:04:28 57° SSE 20:04:54 65° ESE 20:08:11 10° NNE
BREEZE-M DEB (TANK) 3.8 20:02:12 10° WNW 20:04:58 39° N 20:11:53 10° ENE
Cosmos 1470 Rocket 4.0 20:01:49 10° SSW 20:06:10 61° W 20:10:30 10° N
NOSS 3-2 (C) 3.5 20:00:47 10° SW 20:06:26 75° NW 20:12:57 10° NE
Cosmos 2242 Rocket 3.5 20:02:57 10° N 20:07:23 78° E 20:09:08 36° SSE
Cosmos 2082 Rocket 4.2 20:06:08 10° WSW 20:11:04 30° NW 20:16:01 10° N
Cosmos 1459 Rocket 4.5 20:09:17 31° SE 20:11:34 41° E 20:17:28 10° NNE
BREEZE-M DEB (TANK) 3.6 20:10:27 10° NW 20:12:21 22° N 20:12:31 22° NNE
ERS-1 Rocket 3.4 20:16:14 36° ESE 20:17:31 44° ENE 20:22:17 10° N
Meteor 1-14 Rocket 4.2 20:13:21 18° S 20:17:53 80° E 20:23:53 10° NNE
Cosmos 2322 Rocket 2.2 20:15:28 10° NNW 20:21:11 71° ENE 20:23:14 40° SE
Cosmos 1850 Rocket 4.3 20:17:52 10° SSW 20:23:09 70° WNW 20:28:25 10° NNE
Cosmos 1500 3.6 20:25:36 45° ENE 20:25:36 45° ENE 20:28:39 10° NNE
SPOT 1/Viking Rocket 3.5 20:23:32 41° SSE 20:25:25 78° ENE 20:30:40 10° N
Terra 2.6 20:27:56 34° E 20:28:25 34° ENE 20:32:43 10° N
Cosmos 841 Rocket 3.5 20:23:24 10° NNW 20:28:38 64° ENE 20:29:56 47° SE
Cosmos 2360 Rocket 2.7 20:24:51 10° NNW 20:30:19 46° ENE 20:31:48 38° E
IGS 5A 3.6 20:29:39 48° SSW 20:30:40 69° WSW 20:34:50 10° NNW
USA 276 2.7 20:27:31 10° WNW 20:30:10 56° NW 20:30:10 56° NW
Meteor 1-18 Rocket 4.4 20:25:35 10° NNW 20:31:07 68° W 20:33:52 30° S
X-37B 1.7 20:28:09 10° W 20:30:22 38° W 20:30:22 38° W
ATLAS 3B R/B 2.5 20:24:56 10° SSW 20:31:24 62° ESE 20:37:56 10° NE
Cosmos 1238 Rocket 4.2 20:30:32 18° WSW 20:31:54 25° WNW 20:34:30 10° NNW
Okean 3 4.2 20:28:19 10° N 20:32:07 37° ENE 20:32:07 37° ENE
USA 234 4.0 20:29:00 21° E 20:33:04 45° NNE 20:39:13 10° NW
Cosmos 2237 4.5 20:28:56 10° NNW 20:34:32 55° ENE 20:35:58 43° ESE
Resurs 01 Rocket 3.4 20:34:56 15° SSW 20:37:47 27° W 20:41:36 10° NW
Iridium 4 Rocket 3.7 20:38:44 39° ENE 20:38:44 39° ENE 20:42:02 10° NNE
Cosmos 1980 Rocket 4.3 20:34:36 10° NW 20:38:38 20° W 20:42:39 10° SW
Cosmos 44 3.3 20:34:34 10° NW 20:39:33 82° WSW 20:40:36 57° SSE
CARTOSAT-1 3.4 20:40:31 70° E 20:40:44 72° ENE 20:45:02 10° N
Lacrosse 5 2.4 20:36:02 10° WNW 20:40:54 47° SW 20:41:50 42° SSW
Cosmos 2061 Rocket 4.0 20:50:45 51° SE 20:51:43 56° E 20:57:45 10° NNE
Spot 2 Rocket 4.2 20:51:17 34° SSW 20:53:04 48° W 20:58:00 10° NNW
Cosmos 1814 Rocket 3.8 20:51:03 10° NNW 20:56:18 89° ENE 20:56:56 70° SSE
COSMOS 2428 4.0 20:51:49 10° N 20:56:40 27° NE 20:57:48 26° ENE
Cosmos 1802 Rocket 3.9 20:54:58 50° SSE 20:56:41 75° E 21:03:01 10° NNE
Cosmos 1869 Rocket 3.9 20:57:44 55° WSW 20:58:22 63° W 21:02:49 10° N
CENTAUR R/B 3.8 20:54:14 10° WSW 20:59:57 42° NW 21:06:41 10° NNE
Cosmos 2237 Rocket 4.4 20:57:53 10° NNE 21:00:37 13° NE 21:02:46 11° ENE
Okean 1-7 4.0 20:57:12 10° NNW 21:01:14 40° W 21:01:51 37° WSW
Cosmos 1437 Rocket 4.4 21:03:54 10° NW 21:07:04 26° W 21:07:19 25° W
ATLAS 5 CENTAUR R/B 2.8 21:11:44 10° NNW 21:14:48 55° NE 21:14:58 55° ENE
Cosmos 2333 Rocket 2.8 21:09:21 10° NNW 21:14:52 43° ENE 21:15:19 43° ENE
SPOT 5 3.1 21:17:39 54° W 21:17:39 54° W 21:21:41 10° NNW
Cosmos 1066 Rocket 4.2 21:16:02 10° N 21:21:30 63° ENE 21:21:30 63° ENE
Cosmos 1733 Rocket 4.0 21:29:41 45° NNE 21:29:41 45° NNE 21:32:47 10° N
Meteor 1-11 Rocket 3.8 21:31:46 64° WSW 21:32:26 70° WNW 21:38:14 10° N
Cosmos 968 Rocket 4.1 21:37:25 46° NE 21:37:25 46° NE 21:41:05 10° NNE
Lacrosse 4 Rocket 2.7 21:37:37 39° N 21:37:37 39° N 21:40:36 10° NNE
Tsikada Rocket 3.8 21:32:06 10° N 21:38:27 88° E 21:38:46 82° SSE
USA 267 3.8 21:35:03 10° NE 21:41:25 57° NNW 21:47:47 10° WSW
SL-4 R/B 4.0 21:40:56 10° NW 21:42:59 24° NNW 21:42:59 24° NNW
Cosmos 2219 Rocket 2.4 21:39:03 10° NNW 21:44:23 64° NE 21:44:23 64° NE
SL-16 R/B 4.0 21:43:27 10° NW 21:47:23 19° W 21:48:20 19° WSW
Cosmos 1725 Rocket 4.4 21:55:18 52° WSW 21:56:18 57° WNW 22:02:33 10° N
Meteor 1-23 Rocket 4.4 21:51:44 10° NNW 21:57:14 68° WNW 21:57:14 68° WNW
Cosmos 2322 3.9 21:52:26 10° NNW 21:57:25 63° WNW 21:57:25 63° WNW
Cosmos 2322 Rocket 4.2 22:00:59 10° WNW 22:04:34 17° W 22:05:03 17° WSW
Terra 3.5 22:06:49 26° W 22:06:49 26° W 22:10:13 10° NW
Cosmos 2360 Rocket 3.7 22:09:21 10° NW 22:13:33 27° W 22:13:33 27° W
USA 234 3.3 22:16:20 67° WSW 22:16:20 67° WSW 22:22:25 10° NW
SL-16 R/B 4.2 22:12:26 10° N 22:16:22 19° NE 22:17:41 17° ENE
ATLAS 3B R/B 4.1 22:16:38 10° WSW 22:22:29 33° NW 22:28:26 10° NNE
MOS 1-B Rocket 4.2 22:17:48 10° N 22:23:10 57° WNW 22:23:10 57° WNW
Cosmos 2297 Rocket 3.6 22:32:12 28° ENE 22:32:12 28° ENE 22:35:07 10° NE
Thor Agena Rocket 4.3 22:31:13 10° N 22:35:03 48° NNW 22:35:03 48° NNW
Cosmos 1980 4.3 22:32:21 10° NNW 22:36:58 54° NNE 22:36:58 54° NNE
Timation 2 Rocket 4.3 22:39:51 58° NNE 22:39:51 58° NNE 22:44:36 10° NNE
COSMOS 2428 3.6 22:35:40 10° NW 22:39:48 42° WNW 22:39:48 42° WNW
Cosmos 2219 4.2 22:46:31 39° NE 22:46:31 39° NE 22:50:03 10° NNE
Cosmos 1464 Rocket 4.2 22:46:12 67° NNE 22:46:12 67° NNE 22:51:29 10° N
Cosmos 2237 Rocket 2.8 22:40:08 10° NNW 22:44:34 53° N 22:44:34 53° N
NOSS 0 Rocket 4.3 22:46:46 10° NNW 22:51:50 58° NW 22:51:50 58° NW
Nadezhda 4 Rocket 4.3 22:49:31 10° N 22:54:56 62° NNE 22:54:56 62° NNE
Cosmos 2333 Rocket 3.8 22:54:00 10° NW 22:57:19 26° WNW 22:57:19 26° WNW
Cosmos 1092 Rocket 4.3 23:11:23 10° N 23:16:44 58° NE 23:16:44 58° NE
Cosmos 2034 Rocket 4.2 23:19:27 65° NNW 23:19:27 65° NNW 23:24:58 10° N
Cosmos 2227 Rocket 2.9 23:22:00 50° NNE 23:22:00 50° NNE 23:26:07 10° NNE
Cosmos 2219 Rocket 4.3 23:24:15 10° WNW 23:26:05 16° WNW 23:26:05 16° WNW
Resurs 1-4 Rocket 4.3 23:33:12 10° NE 23:35:32 15° ENE 23:35:32 15° ENE
Cosmos 2082 4.3 23:48:47 52° NNE 23:48:47 52° NNE 23:52:57 10° NNE
Cosmos 1607 4.3 23:42:14 10° NW 23:47:26 60° NW 23:47:26 60° NW
USA 229 DEB 4.0 23:53:16 52° E 23:53:16 52° E 23:58:51 10° NE
USA 229 4.0 23:53:24 52° E 23:53:24 52° E 23:58:56 10° NE
